Tracking 20040 objects as of 18-Nov-2019
Live streaming from Space Station
objects crossing your sky now

QBITO


QBITO is no longer on orbit
QBITO is classified as:


NORAD ID: 42728
Int'l Code: 1998-067MH
Perigee: N/A
Apogee: N/A
Inclination: N/A
Period: N/A
Semi major axis: N/A
RCS: N/A
Launch date: November 20, 1998
Source: Spain (SPN)
Launch site: TYURATAM MISSILE AND SPACE COMPLEX (TTMTR)
Decay date: 2019-02-16

Uplink (MHz):
Downlink (MHz): 436.810
Beacon (MHz):
Mode: 9600bps GFSK
Call sign:
Status: Reentered

aabbcc
Your satellite tracking list
Your tracking list is empty




NASA's NSSDC Master Catalog

Two Line Element Set (TLE):
1 42728U 98067MH  19047.60446742  .14892182  12584-4  44484-3 0  9993
2 42728  51.6170 162.9558 0004113 309.3568  50.8266 16.45061398 99080
Source of the keplerian elements: AMSAT